ROMMA est une association bénévole à but non lucratif. Votre soutien est indispensable : ADHERER à ROMMA ou FAIRE un DON

Val-d'Arly - (73, Savoie)

Beaufortain (2050 m)   Longitude: 06° 35' 21" E   Latitude: 45° 46' 53" N Station romma n°118
 

Détail journalier du     <<     >>

Température Humidité Vent Dir Rafale Dir. rafale Ensol.
Heure (°C) (%) (km/h) (km/h) (min)
01:00 -7.17833ENE53E0
02:00 -7.79133ENE55E0
03:00 -7.59232ENE55E0
04:00 -7.69229ENE42E0
05:00 -7.79230ENE45ENE0
06:00 -8.29229ENE40E0
07:00 -8.49126ENE37ENE0
08:00 -8.49125ENE37ENE10
09:00 -8.09121ENE32ENE50
10:00 -7.49223ENE35E60
11:00 -6.99220E27E60
12:00 -5.79017E26E60
13:00 -2.9843ENE15E40
14:00 -2.8657E19E50
15:00 -2.25513ENE29E60
16:00 -1.85519ENE34NE60
17:00 -1.65715ENE29ENE60
18:00 -2.35919E27ENE60
19:00 -3.26624E34E10
20:00 -3.16314ESE26ESE0
21:00 -3.4657ESE16ESE0
22:00 -3.4658ENE13ENE0
23:00
minuit

Graphique du 26-03-2019

 

Serveur OMMA